Location: Azul
(36.7830°S, 59.8500°W)
Time: 20:09:51
(UTC-03:00)

ISS - Pass Details

Date: 19 February 2020
Orbit: 415 x 422 km, 51.6° (Epoch: 27 February)

Event Time Altitude Azimuth Distance (km) Brightness Sun altitude
Rises 21:17:47 0° 264° (W) 2,380 1.4 -16.9°
Reaches altitude 10° 21:20:41 10° 237° (WSW) 1,519 0.4 -17.4°
Maximum altitude 21:22:34 14° 203° (SSW) 1,300 -0.6 -17.7°
Drops below altitude 10° 21:24:27 10° 169° (S) 1,523 -0.7 -18.0°
Sets 21:27:22 0° 142° (SE) 2,391 0.0 -18.5°
Enters shadow 21:27:31 - 142° (SE) 2,444 0.1 -18.6°
